| time (UTC) | temp F | wind direction | speed MPH | gust MPH | rain 1hr in | rain 24hr in | rain mn in | humidity % | barometer mb |
| 20260505053203 | 71 | 117 | 6.0 | 14.0 | 0.00 | 0.00 | 0.00 | 88 | 1007.6 |
| 20260505052145 | 71 | 154 | 6.0 | 15.0 | 0.00 | 0.00 | 0.00 | 88 | 1007.4 |
| 20260505051144 | 71 | 139 | 6.0 | 15.0 | 0.00 | 0.00 | 0.00 | 87 | 1007.5 |
| 20260505050156 | 71 | 126 | 6.0 | 13.0 | 0.00 | 0.00 | 0.00 | 87 | 1007.4 |
| 20260505034717 | 73 | 169 | 4.0 | 13.0 | 0.00 | 0.00 | 0.00 | 82 | 1007.5 |
| 20260505033706 | 73 | 114 | 5.0 | 14.0 | 0.00 | 0.00 | 0.00 | 82 | 1007.6 |
| 20260505032641 | 73 | 131 | 6.0 | 14.0 | 0.00 | 0.00 | 0.00 | 81 | 1007.5 |
| 20260505031628 | 74 | 102 | 5.0 | 13.0 | 0.00 | 0.00 | 0.00 | 80 | 1007.6 |
| 20260505025509 | 74 | 136 | 4.0 | 12.0 | 0.00 | 0.00 | 0.00 | 79 | 1007.5 |
| 20260505024512 | 74 | 147 | 5.0 | 9.0 | 0.00 | 0.00 | 0.00 | 78 | 1007.5 |
| 20260505022324 | 74 | 145 | 4.0 | 10.0 | 0.00 | 0.00 | 0.00 | 76 | 1007.5 |
| 20260505021301 | 74 | 132 | 3.0 | 8.0 | 0.00 | 0.00 | 0.00 | 75 | 1007.6 |
| 20260505020312 | 75 | 130 | 4.0 | 8.0 | 0.00 | 0.00 | 0.00 | 75 | 1007.4 |
| 20260505014212 | 75 | 107 | 4.0 | 9.0 | 0.00 | 0.00 | 0.00 | 74 | 1007.3 |
| 20260505013156 | 75 | 168 | 3.0 | 8.0 | 0.00 | 0.00 | 0.00 | 74 | 1007.4 |
| 20260505012138 | 76 | 146 | 5.0 | 9.0 | 0.00 | 0.00 | 0.00 | 73 | 1007.4 |
| 20260505011124 | 76 | 105 | 4.0 | 9.0 | 0.00 | 0.00 | 0.00 | 73 | 1007.5 |
| 20260505010144 | 76 | 173 | 4.0 | 9.0 | 0.00 | 0.00 | 0.00 | 72 | 1007.4 |
| 20260505005142 | 77 | 115 | 4.0 | 11.0 | 0.00 | 0.00 | 0.00 | 71 | 1007.5 |
| 20260505004201 | 78 | 178 | 6.0 | 11.0 | 0.00 | 0.00 | 0.00 | 70 | 1007.2 |
| 20260505000908 | 79 | 107 | 6.0 | 14.0 | 0.00 | 0.00 | 0.00 | 68 | 1007.4 |
| 20260504235932 | 79 | 138 | 7.0 | 14.0 | 0.00 | 0.00 | 0.00 | 67 | 1007.2 |
| 20260504234915 | 80 | 187 | 7.0 | 13.0 | 0.00 | 0.00 | 0.00 | 66 | 1007.4 |
| 20260504233902 | 81 | 113 | 6.0 | 14.0 | 0.00 | 0.00 | 0.00 | 66 | 1007.4 |
| 20260504230537 | 82 | 80 | 7.0 | 18.0 | 0.00 | 0.00 | 0.00 | 64 | 1007.5 |
| 20260504225558 | 82 | 147 | 8.0 | 15.0 | 0.00 | 0.00 | 0.00 | 64 | 1007.7 |
| 20260504224555 | 82 | 77 | 7.0 | 14.0 | 0.00 | 0.00 | 0.00 | 64 | 1007.7 |
| 20260504223612 | 82 | 108 | 8.0 | 18.0 | 0.00 | 0.00 | 0.00 | 64 | 1007.8 |
| 20260504222611 | 82 | 84 | 9.0 | 18.0 | 0.00 | 0.00 | 0.00 | 63 | 1008.0 |
| 20260504221611 | 83 | 113 | 8.0 | 14.0 | 0.00 | 0.00 | 0.00 | 62 | 1008.1 |
| 20260504220617 | 82 | 171 | 7.0 | 18.0 | 0.00 | 0.00 | 0.00 | 64 | 1008.2 |
| 20260504215546 | 82 | 103 | 7.0 | 18.0 | 0.00 | 0.00 | 0.00 | 63 | 1008.1 |
| 20260504211125 | 82 | 145 | 6.0 | 20.0 | 0.00 | 0.00 | 0.00 | 62 | 1008.9 |
| 20260504210054 | 82 | 101 | 7.0 | 18.0 | 0.00 | 0.00 | 0.00 | 63 | 1009.2 |
| 20260504205047 | 82 | 134 | 6.0 | 15.0 | 0.00 | 0.00 | 0.00 | 64 | 1009.4 |
| 20260504204101 | 81 | 127 | 6.0 | 15.0 | 0.00 | 0.00 | 0.00 | 64 | 1009.5 |
| 20260504201955 | 80 | 177 | 8.0 | 18.0 | 0.00 | 0.00 | 0.00 | 64 | 1009.9 |
| 20260504200954 | 80 | 132 | 7.0 | 15.0 | 0.00 | 0.00 | 0.00 | 66 | 1010.1 |
| 20260504195925 | 80 | 105 | 6.0 | 14.0 | 0.00 | 0.00 | 0.00 | 66 | 1010.2 |
| 20260504194946 | 79 | 134 | 7.0 | 17.0 | 0.00 | 0.00 | 0.00 | 67 | 1010.4 |
| 20260504194008 | 78 | 148 | 8.0 | 17.0 | 0.00 | 0.00 | 0.00 | 66 | 1010.8 |
| 20260504193020 | 79 | 123 | 8.0 | 15.0 | 0.00 | 0.00 | 0.00 | 65 | 1010.9 |
| 20260504192000 | 79 | 147 | 7.0 | 17.0 | 0.00 | 0.00 | 0.00 | 67 | 1011.0 |
| 20260504191015 | 78 | 152 | 6.0 | 17.0 | 0.00 | 0.00 | 0.00 | 69 | 1011.2 |
| 20260504185956 | 77 | 77 | 7.0 | 17.0 | 0.00 | 0.00 | 0.00 | 68 | 1011.4 |
| 20260504184925 | 77 | 164 | 6.0 | 17.0 | 0.00 | 0.00 | 0.00 | 70 | 1011.4 |
| 20260504182755 | 76 | 175 | 8.0 | 18.0 | 0.00 | 0.00 | 0.00 | 71 | 1011.6 |
| 20260504180543 | 75 | 195 | 8.0 | 19.0 | 0.00 | 0.00 | 0.00 | 72 | 1011.9 |
| 20260504175555 | 75 | 141 | 7.0 | 19.0 | 0.00 | 0.00 | 0.00 | 71 | 1012.2 |
| 20260504174538 | 74 | 146 | 7.0 | 19.0 | 0.00 | 0.00 | 0.00 | 73 | 1012.4 |
| 20260504173557 | 74 | 190 | 9.0 | 19.0 | 0.00 | 0.00 | 0.00 | 73 | 1012.6 |
| 20260504172523 | 74 | 168 | 7.0 | 17.0 | 0.00 | 0.00 | 0.00 | 73 | 1012.8 |
| 20260504171541 | 73 | 119 | 7.0 | 14.0 | 0.00 | 0.00 | 0.00 | 74 | 1013.0 |
| 20260504170547 | 73 | 169 | 8.0 | 18.0 | 0.00 | 0.00 | 0.00 | 74 | 1013.1 |
| 20260504150207 | 69 | 122 | 9.0 | 22.0 | 0.00 | 0.00 | 0.00 | 77 | 1013.7 |
| 20260504141023 | 67 | 134 | 7.0 | 15.0 | 0.00 | 0.00 | 0.00 | 81 | 1013.7 |
| 20260504081455 | 62 | 82 | 4.0 | 8.0 | 0.00 | 0.00 | 0.00 | 80 | 1014.1 |
| 20260504080506 | 62 | 124 | 4.0 | 8.0 | 0.00 | 0.00 | 0.00 | 80 | 1014.1 |
| 20260504070347 | 63 | 113 | 5.0 | 9.0 | 0.00 | 0.00 | 0.00 | 76 | 1015.3 |
| 20260504060212 | 64 | 112 | 4.0 | 9.0 | 0.00 | 0.00 | 0.00 | 72 | 1016.3 |